Home > Weather > Kunming > Past weeks

Flag for China Weather for the Past 2 Weeks in Kunming, Yunnan, China

Now
72 °F

Clear.


Feels Like: 75 °F
Forecast: 52 / 77 °F
Wind: 10 mph from Southwest

Location: Kunming Airport

Current Time: May 2, 2016 at 9:12:29 PM

Latest Report: May 2, 2016 at 8:00 PM


Visibility: 10 mi

Pressure: 30.09 "Hg (24.12 "Hg at 1909m altitude)

Humidity: 23%

Dew Point: 32 °F

Location of KunmingLocation

Historic Weather in Kunming — Graph

°F

Kunming Temperature Yesterday

Maximum temperature yesterday: 79 °F (at 1:00 PM)
Minimum temperature yesterday: 61 °F (at 6:00 AM)
Average temperature yesterday: 68 °F

High & Low Weather Summary for the Past Weeks

 TemperatureHumidityPressure
High79 °F (Apr 30, 2:00 PM)100% (Apr 18, 2:00 AM)30.30 "Hg (Apr 18, 2:00 AM)
Low41 °F (Apr 18, 5:00 AM)22% (May 2, 4:00 PM)29.86 "Hg (Apr 22, 3:00 PM)
Average62 °F61%30.07 "Hg
* Reported Apr 17 8:00 PM — May 2 8:00 PM, Kunming, Weather by CustomWeather, © 2016

Note: Actual official high and low records may vary slightly from our data, if they occured in-between our weather recording intervals... More about our weather records

Advertising

Kunming Weather History for the Previous 24 Hours

Scroll right to see more
 ConditionsComfort  
Time TempWeatherWind HumidityBarometerVisibility
8:00 PM
Mon, May 2
72 °FClear.10 mph23%30.09 "Hg10 mi
7:00 PM73 °FSunny.13 mph22%30.07 "Hg10 mi
6:00 PM77 °FSunny.15 mph22%30.04 "Hg10 mi
5:00 PM77 °FSunny.15 mph24%30.07 "Hg10 mi
4:00 PM77 °FPassing clouds.15 mph22%30.07 "HgN/A
3:00 PM79 °FPassing clouds.17 mph23%30.07 "HgN/A
2:00 PM77 °FPassing clouds.10 mph24%30.09 "HgN/A
1:00 PM75 °FPassing clouds.10 mph24%30.09 "HgN/A
12:00 PM75 °FPassing clouds.10 mph27%30.09 "HgN/A
11:00 AM72 °FSunny.17 mph31%30.09 "Hg10 mi
10:00 AM68 °FSunny.20 mph38%30.09 "Hg10 mi
9:00 AM64 °FPassing clouds.17 mph40%30.09 "HgN/A
8:00 AM61 °FSunny.17 mph52%30.09 "Hg10 mi
7:00 AM57 °FSunny.17 mph55%30.07 "Hg10 mi
6:00 AM57 °FClear.15 mph55%30.04 "Hg10 mi
5:00 AM57 °FClear.17 mph55%30.01 "Hg10 mi
4:00 AM57 °FClear.20 mph55%30.01 "Hg10 mi
3:00 AM59 °FClear.17 mph51%30.01 "Hg10 mi
2:00 AM59 °FClear.20 mph55%30.04 "Hg10 mi
1:00 AM61 °FClear.13 mph48%30.04 "Hg10 mi
12:00 AM61 °FClear.17 mph52%30.07 "Hg10 mi
11:00 PM
Sun, May 1
61 °FClear.13 mph48%30.04 "Hg10 mi
10:00 PM63 °FClear.13 mph45%30.04 "Hg10 mi
9:00 PM64 °FClear.15 mph43%30.04 "Hg10 mi
Weather by CustomWeather, © 2016

See weather overviewHow to use our weather pages